#timestamp,LO_Frequency,Hit,StdDev 
1581883215.1,286046994.9,Y
1581883216.0,286046994.9,P
1581883235.8,286047002.8,N
1581883255.6,286047003.6,N
1581883275.5,286047003.2,N
1581883295.3,286047011.9,Y
1581883315.2,286047001.9,P
1581883335.9,286047002.7,P
1581883355.7,286047004.3,P
1581883375.6,286047004.4,Y
1581883395.4,286046998.3,P
1581883415.2,286047002.7,N
1581883435.1,286046999.9,N
1581883436.0,286046999.9,N
1581883455.8,286046998.3,N
1581883475.7,286046998.3,N
1581883495.5,286047002.7,N
1581883515.3,286047001.5,N
1581883535.2,286047002.3,N
1581883555.0,286046999.8,N
1581883555.9,286046999.8,N
1581883575.8,286047001.7,N
1581883595.6,286047004.3,N
1581883615.4,286047002.2,N
1581883635.3,286046999.7,N
1581883655.1,286047001.8,N
1581883675.8,286047004.3,N
1581883695.7,286047003.8,N
1581883715.5,286047003.1,N
1581883735.4,286047005.5,N
1581883755.2,286047003.1,N
1581883775.0,286047001.7,N
1581883775.9,286047001.7,N
1581883795.8,286047003.7,N
1581883815.6,286047002.4,N
1581883835.5,286047000.4,N
1581883855.3,286047004.0,N
1581883875.1,286047004.4,N
1581883895.9,286047002.9,N
1581883915.7,286047003.3,N
1581883935.5,286047001.6,N
1581883955.4,286047003.7,N
1581883975.2,286047003.7,N
1581883995.1,286047005.2,N
1581883996.0,286047005.2,N
1581884015.8,286047005.7,Y
1581884035.6,286047002.4,P
1581884055.5,286047000.0,N
1581884075.3,286047002.0,N
1581884095.2,286047002.7,N
1581884115.9,286047001.6,N
1581884135.7,286047004.4,Y
1581884155.6,286047000.5,P
1581884175.4,286046998.3,N
1581884195.2,286046998.1,N
1581884215.1,286046995.5,N
1581884216.0,286046995.5,N
1581884235.8,286046994.3,N
1581884255.7,286046992.0,Y
1581884275.5,286046996.5,P
1581884295.3,286046998.7,N
1581884315.2,286046995.3,P
1581884335.0,286046996.2,N
1581884335.9,286046996.2,Y
1581884355.8,286046998.4,P
1581884375.6,286046998.5,N
1581884395.4,286047000.7,N
1581884415.3,286047000.8,N
1581884435.1,286047000.5,N
1581884455.9,286047000.4,N
1581884475.7,286047000.6,N
1581884495.5,286047000.5,N
1581884515.4,286047001.0,N
1581884535.2,286046998.2,N
1581884555.0,286046998.2,N
1581884555.9,286046998.2,N
1581884575.8,286047001.1,N
1581884595.6,286047000.3,N
1581884615.5,286047002.2,N
1581884635.3,286047001.7,N
1581884655.1,286047000.2,N
1581884675.9,286047001.8,N
1581884695.7,286047001.4,N
1581884715.5,286047000.2,N
1581884735.4,286047000.1,N
1581884755.2,286047002.6,N
1581884775.1,286047003.5,N
1581884776.0,286047003.5,N
1581884795.8,286047001.8,N
1581884815.6,286047002.8,N
1581884835.5,286046999.8,N
1581884855.3,286047001.3,N
1581884875.2,286047004.0,N
1581884895.9,286047001.7,N
1581884915.7,286047001.9,N
1581884935.6,286046999.8,N
1581884955.4,286047002.8,N
1581884975.3,286046999.7,N
1581884995.1,286046999.7,N
1581884996.0,286046999.7,N
1581885015.8,286047003.4,N
1581885035.7,286047004.9,Y
1581885055.5,286047001.5,P
1581885075.4,286046998.4,P
1581885095.2,286046998.3,N
1581885115.0,286046998.4,N
1581885115.9,286046998.4,N
1581885135.8,286047000.9,N
1581885155.6,286047000.4,N
1581885175.4,286046998.5,N
1581885195.3,286046999.7,N
1581885215.1,286046998.1,N
1581885235.9,286046999.9,N
1581885255.7,286047000.3,N
1581885275.5,286047001.8,N
1581885295.4,286046999.2,N
1581885315.2,286046996.8,N
1581885335.0,286046997.4,N
1581885335.9,286046997.4,N
1581885355.8,286047001.1,N
1581885375.6,286046997.4,N
1581885395.5,286046996.6,N
1581885415.3,286047000.9,N
1581885435.1,286046998.2,N
1581885455.9,286046998.8,N
1581885475.7,286046999.1,N
1581885495.5,286046998.3,N
1581885515.4,286046998.4,N
1581885535.2,286046998.8,N
1581885555.1,286046999.2,N
1581885556.0,286046999.2,N
1581885575.8,286046994.9,Y
1581885595.7,286046994.9,P
1581885615.5,286046997.8,N
1581885635.3,286046997.4,N
1581885655.2,286046995.3,Y
1581885675.0,286046999.0,P
1581885675.9,286046999.0,N
1581885695.8,286046998.2,N
1581885715.6,286046998.4,N
1581885735.4,286047000.6,N
1581885755.3,286047000.9,N
1581885775.1,286047001.1,N
1581885795.9,286046998.6,N
1581885815.7,286047000.7,N
1581885835.5,286046999.6,N
1581885855.4,286046998.5,N
1581885875.2,286046996.9,N
1581885895.0,286046998.7,N
1581885895.9,286046998.7,N
1581885915.8,286046998.7,N
1581885935.6,286046998.5,N
1581885955.5,286046999.4,N
1581885975.3,286046997.8,N
1581885995.1,286046999.5,N
1581886015.9,286046998.9,N
1581886035.7,286046996.8,N
1581886055.5,286046997.4,N
1581886075.4,286046995.9,Y
1581886095.2,286046997.0,P
1581886115.1,286046994.9,P
1581886116.0,286046994.9,P
1581886135.8,286046995.0,Y
1581886155.6,286047001.0,P
1581886175.5,286047000.0,N
1581886195.3,286047000.6,N
1581886215.2,286047000.2,N
1581886235.9,286047002.4,N
1581886255.7,286047000.0,N
1581886275.6,286047000.1,N
1581886295.4,286047001.4,N
1581886315.3,286047003.8,N
1581886335.1,286047002.5,N
1581886336.0,286047002.5,N
1581886355.8,286047003.8,N
1581886375.7,286047001.9,N
1581886395.5,286047000.8,N
1581886415.4,286046999.3,N
1581886435.2,286046998.7,N
1581886455.0,286046997.6,N
1581886455.9,286046997.6,N
1581886475.8,286046997.8,N
1581886495.6,286046995.7,N
1581886515.5,286046993.3,Y
1581886535.3,286046995.2,P
1581886555.1,286046995.3,N
1581886575.9,286046996.4,N
1581886595.7,286046994.3,N
1581886615.5,286046994.2,N
1581886635.4,286046994.8,N
1581886655.2,286046994.4,N
1581886675.1,286046992.7,Y
1581886676.0,286046992.7,P
1581886695.8,286046996.5,N
1581886715.6,286046997.5,N
1581886735.5,286046993.9,Y
1581886755.3,286046998.5,P
1581886775.2,286046999.5,N
1581886795.9,286046999.1,N
